Flag for Spain Weather past 2 weeks in Almería, Spain

Now
63 °F

Mild.


Feels Like: 63 °F
Forecast: 60 / 74 °F
Wind: 2 mph from Southwest

Location: Almeria / Aeropuerto

Current Time: Apr 25, 2015 at 3:19:36 AM

Latest Report: Apr 25, 2015 at 2:00 AM


Visibility: N/A

Pressure: 29.99 "Hg

Humidity: 91%

Dew point: 60 °F

Location of AlmeríaLocation

Historic Weather in Almería — Graph

°F

Almería temperature yesterday

Maximum temperature yesterday: 65 °F (at 3:00 PM)
Minimum temperature yesterday: 60 °F (at 5:00 AM)
Average temperature yesterday: 62 °F

Past Weeks' High & Low Weather Summary

 TemperatureHumidityPressure
High79 °F (Apr 13, 5:00 PM)97% (Apr 11, 11:00 AM)30.26 "Hg (Apr 11, 11:00 AM)
Low52 °F (Apr 10, 5:00 AM)29% (Apr 14, 1:00 AM)29.90 "Hg (Apr 18, 8:00 PM)
Average64 °F71%30.09 "Hg
* Reported Apr 10 2:00 AM — Apr 25 2:00 AM, Almería, Weather by CustomWeather, © 2015

Note: Actual official high and low records may vary slightly from our data, if they occured in-between our weather recording intervals... More about our weather records

Advertising

Almería weather history for previous 24 hours

 ConditionsComfort  
Time TempWeatherWind HumidityBarometerVisibility
2:00 AM
Sat, Apr 25
63 °FMild.2 mph91%29.99 "HgN/A
1:00 AM63 °FMild.9 mph92%30.00 "HgN/A
12:00 AM62 °FCool.7 mph92%29.99 "HgN/A
10:00 PM
Fri, Apr 24
62 °FCool.10 mph91%29.99 "HgN/A
9:00 PM62 °FCool.9 mph90%29.97 "HgN/A
8:00 PM62 °FFog.13 mph90%29.98 "Hg4 mi
7:00 PM62 °FMild.8 mph87%29.97 "HgN/A
6:00 PM64 °FMild.8 mph81%29.97 "HgN/A
5:00 PM65 °FFog.10 mph80%29.99 "Hg4 mi
4:00 PM64 °FMild.7 mph83%30.00 "HgN/A
3:00 PM65 °FMild.6 mph80%30.03 "HgN/A
2:00 PM63 °FFog.3 mph83%30.05 "Hg3 mi
1:00 PM63 °FMild.3 mph85%30.06 "HgN/A
12:00 PM63 °FMild.6 mph86%30.06 "HgN/A
11:00 AM62 °FFog.6 mph88%30.06 "Hg2 mi
10:00 AM62 °FCool.3 mph89%30.06 "HgN/A
9:00 AM61 °FCool.2 mph90%30.05 "HgN/A
8:00 AM60 °FFog.2 mph94%30.04 "Hg2 mi
7:00 AM61 °FCool.3 mph95%30.03 "HgN/A
6:00 AM60 °FCool.2 mph96%30.03 "HgN/A
5:00 AM60 °FFog.2 mph96%30.02 "Hg2 mi
4:00 AM61 °FCool.3 mph95%30.03 "HgN/A
3:00 AM60 °FCool.3 mph92%30.05 "HgN/A
Weather by CustomWeather, © 2015

See weather overviewHow to use our weather pages